Regional Weather Roundup
Issued by NWS

Home | Current Version | Previous Version | Text Only | Print | Product List | Glossary On
Versions: 1 2 3 4 5 6 7 8 9 10 11 12 13 14 15 16 17 18 19 20 21 22 23 24 25 26 27 28 29 30 31 32 33 34 35 36 37 38 39 40 41 42 43 44 45 46 47 48 49 50
000
ASUS43 KLSX 222107
RWRMO

WEATHER SUMMARY FOR MISSOURI
NATIONAL WEATHER SERVICE SPRINGFIELD MO
400 PM CDT FRI SEP 22 2017

NOTE: "FAIR" INDICATES FEW OR NO CLOUDS BELOW 12,000 FEET WITH NO
       SIGNIFICANT WEATHER AND/OR OBSTRUCTIONS TO VISIBILITY.
       CURRENT SKY AND/OR WEATHER CONDITIONS ARE NOT AVAILABLE FOR
       CHILLICOTHE AND FARMINGTON.

MOZ001>031-035>038-043-044-053-054-222200-
...NORTHERN AND WESTERN MISSOURI...

CITY           SKY/WX    TMP DP  RH WIND       PRES   REMARKS
KANSAS CTY INT MOSUNNY   88  71  57 S18       29.93F HX  94
KANSAS C DTWN  SUNNY     91  70  49 S17G24    29.92F HX  96
LEE`S SUMMIT   SUNNY     90  71  53 S14G21    29.95F HX  96
ST JOSEPH      SUNNY     92  70  48 S18G26    29.90F HX  97
CHILLICOTHE      N/A     90  69  50 S12       29.94F HX  94
KIRKSVILLE     MOSUNNY   91  67  44 S15       29.98F HX  94

$$
MOZ066>068-077>081-088>096-101>105-222200-
...SOUTHWEST MISSOURI...

CITY           SKY/WX    TMP DP  RH WIND       PRES   REMARKS
SPRINGFIELD    MOSUNNY   89  65  44 S9        29.99F HX  91
JOPLIN         SUNNY     89  69  51 S16       29.97F HX  93
BRANSON        MOSUNNY   91  63  38 SW9       30.01F HX  92

$$
MOZ032>034-039>042-045>050-055>058-069>072-222200-
...CENTRAL MISSOURI...

CITY           SKY/WX    TMP DP  RH WIND       PRES   REMARKS
COLUMBIA       SUNNY     90  65  43 S10       29.99F HX  92
JEFFERSON CITY SUNNY     91  64  40 S8        29.97F HX  92
ROLLA          MOSUNNY   91  64  40 VRB6      30.01F HX  92
SEDALIA        MOSUNNY   91  70  49 S13       29.99F HX  96
WHITEMAN AFB   MOSUNNY   89  71  55 S14       29.96F HX  95
WARRENSBURG    MOSUNNY   86  66  51 S10G18    29.95F

$$
MOZ051-052-059>065-222200-
...EAST CENTRAL MISSOURI...

CITY           SKY/WX    TMP DP  RH WIND       PRES   REMARKS
ST LOUIS INTL  MOSUNNY   94  58  29 S3G16     29.99F HX  93
SPIRIT OF STL  MOSUNNY   94  64  37 SE6       29.97F HX  95
ST CHARLES     MOSUNNY   94  61  33 SE13      29.97F HX  94

$$
MOZ072>076-082>087-097>100-106>115-222200-
...SOUTH CENTRAL AND SOUTHEAST MISSOURI...

CITY           SKY/WX    TMP DP  RH WIND       PRES   REMARKS
CAPE GIRARDEAU MOSUNNY   93  65  39 E8        29.98F HX  95
FARMINGTON     SUNNY     91  65  41 VRB3      30.02F HX  93
POPLAR BLUFF   SUNNY     90  65  43 S5        29.97F HX  92
WEST PLAINS    SUNNY     91  64  40 S10       30.03F HX  92

$$


USA.gov is the U.S. government's official web portal to all federal, state and local government web resources and services.